"Pseudo-MPEC" for C92ALC2

Created 2023 Apr 6 13:22:04 UT using Find_Orb

Click here for an explanation of pseudo-MPECs

 
 Astrometry: 
     C92ALC2*1C2023 03 29.41839016 44 00.013+56 22 25.03   ~3TAq 20.95GVNEOCPG96
     C92ALC2 1C2023 03 29.42357316 44 00.172+56 22 26.00   ~3TAq 21.06GVNEOCPG96
     C92ALC2 1C2023 03 29.42876716 44 00.431+56 22 27.23   ~3TAq 21.12GVNEOCPG96
     C92ALC2 1C2023 03 29.43395816 44 00.564+56 22 28.31   ~3TAq 21.10GVNEOCPG96
     C92ALC2 1C2023 03 29.46588716 44 01.727+56 22 35.29   ~3TCq 21.00GVNEOCPG96
     C92ALC2 1C2023 03 29.47891916 44 02.180+56 22 37.96   ~3TCq 20.88GVNEOCPG96
     C92ALC2 1C2023 03 29.49181316 44 02.648+56 22 40.12   ~3TCq 20.93GVNEOCPG96
     C92ALC2 1C2023 03 29.51492716 44 03.494+56 22 44.54   ~3TCq 20.50GVNEOCPG96
     C92ALC2 KC2023 03 30yEM8[G2t%.1(eJ9C:8LogqG!I09C/?C62X^DRcR==Z]AZveN47wV734
     C92ALC2 KC2023 03 30.40376716 44 41.658+56 25 32.34   ~3UB7 21.65GVNEOCPI52
     C92ALC2 KC2023 03 30bDAstrometry1eTJc=C,T/lTK/`hMu%H/redacted;3^clickj$5H36
     C92ALC2 KC2023 03 30fZ1Rh5;`3!:Bs`PDo7gv2lEAH2Y97o9#)K/q:$WMYKpS1Fw[]dWI734
     C92ALC2 KC2023 03 30.41529816 44 42.094+56 25 34.82   ~3UB7 21.10GVNEOCPI52
     C92ALC2 KC2023 03 301EY5$rs2]7mNQq_%QeO^vu[13i61E[j4`=:YOx6@EKp#*!hY_?/u734
     C92ALC2 KC2023 03 30.42537216 44 42.382+56 25 36.41   ~3UB7 20.94GVNEOCPI52
     C92ALC2 KC2023 03 30Pvus2,?nP-TmgvTWpyuBoSKhereA:0`#+kyZd1f]YqkgdG/;!f1-H36
     C92ALC2 KC2023 03 30.43738416 44 42.781+56 25 38.60   ~3UB7 20.94GVNEOCPI52
     C92ALC2 KC2023 04 01.38869516 45 51.095+56 30 50.47   ~41Aq 20.68GVNEOCPI52
     C92ALC2 KC2023 04 01.40733916 45 51.505+56 30 53.78   ~41Aq       VNEOCPI52
     C92ALC2 KC2023 04 01.42532516 45 51.865+56 30 56.63   ~41Aq 19.69GVNEOCPI52
     C92ALC2 KC2023 04 01.44354316 45 52.225+56 30 58.86   ~41Aq 20.30GVNEOCPI52
     C92ALC2 DC2023 04 02Io4t6N_QQjforB*K`okDOip'6%B7F-kb;nWOiGW(RbrNlw5aC3j_695
     C92ALC2 DC2023 04 02V;@F@7@J((ev9:?;qGm3tv%K1@Hxe..NTkkAoM#Z#explanation695
     C92ALC2 DC2023 04 02qtC2EDYXrU7x@1FrvTV]Z1(%,wR/WV+yl*wLJ'SHHn@o#GK`[\Ba695

Station data:
(695) Kitt Peak  (N31.958395 W111.594670)  US/Arizona. Measurer S. Deen.
   3.5-m f/1.75 reflector + CCD0.9-m f/7.5 reflector + CCD4.0-m
   Ritchey-Chrétien + CCD0.61-m f/3.5 Schmidt + CCD2.3-m f/9 reflector + CCD.
(734) Farpoint Observatory, Eskridge  (N38.890104 W96.001400)  US/Kansas.
   Observer G. Hug. 0.69-m reflector + CCD.
(G96) Mt. Lemmon Survey  (N32.442751 W110.788720)  US/Arizona.  Observer E.
   J. Christensen. 1.5-m reflector + 10K CCD.
(H36) Sandlot Observatory, Scranton  (N38.797690 W95.706400)  US/Kansas.
   Observer G. Hug. 0.56-m reflector + CCD.
(I52) Steward Observatory, Mt. Lemmon Station  (N32.442544 W110.788920)
   US/Arizona.  Observers T. A. Pruyne, B. M. Africano, E. J. Christensen, G.
   A. Farneth, D. C. Fuls, A. R. Gibbs, A. D. Grauer, H. Gröller, J. A.
   Johnson, R. A. Kowalski, S. M. Larson, G. J. Leonard, D. Rankin, R. L.
   Seaman, F. C. Shelly, K. W. Wierzchoś. 1.0-m prime focus + CCD.

Orbital elements:  C92ALC2
   Perihelion 2023 May 6.01223 +/- 2.46 TT =  0:17:36 (JD 2460070.51223)
Epoch 2023 Apr  2.0 TT = JDT 2460036.5   Earth MOID: 0.3118   Ma: 0.0917
M 346.01606177 +/- 1.8              (J2000 ecliptic)             AutoNEOCP
n   0.41114438 +/- 0.0276           Peri.  134.27512 +/- 4.3
a   1.79118238 +/- 0.0802           Node    85.18859 +/- 2.1
e   0.3003360 +/- 0.0172            Incl.   30.11434 +/- 0.9
P   2.40/875.59d           H 19.77  G  0.15   U 10.3
q 1.25322579 +/- 0.026    Q 2.32913897 +/- 0.135
From 24 observations 2023 Mar. 29-Apr. 2; mean residual 0".25
Residuals in arcseconds: 
230329 G96  .01+  .25+    230330 734  .30-  .21+    230330 I52  .26+  .82-    
230329 G96  .25-  .05+    230330 I52  .23-  .20-    230401 I52  .26+  .14+    
230329 G96  .33+  .12+    230330 H36  .03-  .11-    230401 I52  .22+  .28+    
230329 G96  .13-  .05+    230330 734  .11+  .45+    230401 I52  .02-  .20+    
230329 G96  .00   .19+    230330 I52  .33+  .12-    230401 I52  .25-  .41-    
230329 G96  .10-  .18+    230330 734  .04-  .24+    230402 695  .01+  .11-    
230329 G96  .02-  .24-    230330 I52  .08+  .60-    230402 695  .00   .03+    
230329 G96  .20+  .29-    230330 H36  .16-  .30+    230402 695  .12-  .03+    

Ephemerides (geocentric):
Date (UTC) HH   RA             Dec           delta  r     elong  mag " sig PA
---- --------  ------------   ------------  ------ ------ -----  --- --------
2023 04 06 13  16 47 18.527   +56 37 37.86  .61434 1.2773 101.9 21.2 4.03  61
2023 04 06 14  16 47 18.694   +56 37 38.54  .61417 1.2772 101.9 21.2 4.09  61
2023 04 06 15  16 47 18.852   +56 37 39.18  .61401 1.2772 101.9 21.2 4.15  61
2023 04 06 16  16 47 19.001   +56 37 39.78  .61384 1.2771 101.9 21.2 4.21  61
2023 04 06 17  16 47 19.141   +56 37 40.33  .61367 1.2770 101.9 21.2 4.27  61
2023 04 06 18  16 47 19.273   +56 37 40.83  .61351 1.2770 101.9 21.2 4.33  61
2023 04 06 19  16 47 19.395   +56 37 41.29  .61334 1.2769 101.9 21.2 4.39  61
2023 04 06 20  16 47 19.509   +56 37 41.70  .61318 1.2768 101.9 21.2 4.45  61
2023 04 06 21  16 47 19.614   +56 37 42.07  .61301 1.2768 101.9 21.2 4.52  61
2023 04 06 22  16 47 19.710   +56 37 42.39  .61285 1.2767 101.9 21.1 4.58  61
2023 04 06 23  16 47 19.797   +56 37 42.67  .61268 1.2766 101.9 21.1 4.65  61
2023 04 07 00  16 47 19.876   +56 37 42.90  .61251 1.2766 101.9 21.1 4.71  61
2023 04 07 01  16 47 19.945   +56 37 43.08  .61235 1.2765 101.9 21.1 4.78  61
2023 04 07 02  16 47 20.006   +56 37 43.22  .61218 1.2764 101.9 21.1 4.85  61
2023 04 07 03  16 47 20.057   +56 37 43.31  .61201 1.2764 101.9 21.1 4.92  61
2023 04 07 04  16 47 20.100   +56 37 43.36  .61185 1.2763 101.9 21.1 4.98  61
2023 04 07 05  16 47 20.134   +56 37 43.36  .61168 1.2763 101.9 21.1 5.05  61
2023 04 07 06  16 47 20.159   +56 37 43.31  .61151 1.2762 101.9 21.1 5.12  61
2023 04 07 07  16 47 20.175   +56 37 43.22  .61135 1.2761 101.9 21.1 5.19  61
2023 04 07 08  16 47 20.182   +56 37 43.08  .61118 1.2761 101.9 21.1 5.27  61
2023 04 07 09  16 47 20.181   +56 37 42.90  .61101 1.2760 101.9 21.1 5.34  60
2023 04 07 10  16 47 20.170   +56 37 42.67  .61085 1.2759 102.0 21.1 5.41  60
2023 04 07 11  16 47 20.151   +56 37 42.39  .61068 1.2759 102.0 21.1 5.49  60
2023 04 07 12  16 47 20.123   +56 37 42.07  .61051 1.2758 102.0 21.1 5.56  60
2023 04 07 13  16 47 20.085   +56 37 41.69  .61035 1.2757 102.0 21.1 5.64  60
2023 04 07 14  16 47 20.039   +56 37 41.28  .61018 1.2757 102.0 21.1 5.71  60
2023 04 07 15  16 47 19.984   +56 37 40.81  .61001 1.2756 102.0 21.1 5.79  60
2023 04 07 16  16 47 19.921   +56 37 40.30  .60984 1.2755 102.0 21.1 5.87  60
2023 04 07 17  16 47 19.848   +56 37 39.74  .60967 1.2755 102.0 21.1 5.95  60
2023 04 07 18  16 47 19.766   +56 37 39.13  .60951 1.2754 102.0 21.1 6.03  60
2023 04 07 19  16 47 19.676   +56 37 38.48  .60934 1.2753 102.0 21.1 6.11  60
2023 04 07 20  16 47 19.576   +56 37 37.78  .60917 1.2753 102.0 21.1 6.19  60
2023 04 07 21  16 47 19.468   +56 37 37.03  .60900 1.2752 102.0 21.1 6.27  60
2023 04 07 22  16 47 19.350   +56 37 36.24  .60883 1.2752 102.0 21.1 6.35  60
2023 04 07 23  16 47 19.224   +56 37 35.39  .60867 1.2751 102.0 21.1 6.44  60
2023 04 08 00  16 47 19.089   +56 37 34.50  .60850 1.2750 102.0 21.1 6.52  60
2023 04 08 01  16 47 18.945   +56 37 33.56  .60833 1.2750 102.0 21.1 6.61  60
2023 04 08 02  16 47 18.792   +56 37 32.58  .60816 1.2749 102.0 21.1 6.69  60
2023 04 08 03  16 47 18.630   +56 37 31.54  .60799 1.2748 102.0 21.1 6.78  60
2023 04 08 04  16 47 18.459   +56 37 30.46  .60782 1.2748 102.0 21.1 6.87  60
2023 04 08 05  16 47 18.280   +56 37 29.33  .60765 1.2747 102.0 21.1 6.96  60
2023 04 08 06  16 47 18.091   +56 37 28.15  .60748 1.2746 102.0 21.1 7.05  60
2023 04 08 07  16 47 17.893   +56 37 26.93  .60732 1.2746 102.0 21.1 7.14  60
2023 04 08 08  16 47 17.687   +56 37 25.65  .60715 1.2745 102.0 21.1 7.23  60
2023 04 08 09  16 47 17.471   +56 37 24.33  .60698 1.2745 102.0 21.1 7.32  60
2023 04 08 10  16 47 17.247   +56 37 22.96  .60681 1.2744 102.1 21.1 7.42  60
2023 04 08 11  16 47 17.014   +56 37 21.54  .60664 1.2743 102.1 21.1 7.51  60
2023 04 08 12  16 47 16.772   +56 37 20.07  .60647 1.2743 102.1 21.1 7.61  60